Location: Home
(42.5358°N, 72.7383°W)
Time: 13:36:09
(UTC-05:00)

Tiros 1 despin weight - All Passes

Search period start: 06 December 2021 00:00
Search period end: 16 December 2021 00:00
Orbit: 593 x 641 km, 48.2° (Epoch: 05 December)

Date Brightness Start Highest point End Pass type
(mag) Time Alt. Az. Time Alt. Az. Time Alt. Az.
06 Dec - 10:43:34 10° S 10:46:56 21° SE 10:50:16 10° E daylight
06 Dec - 12:23:35 10° WSW 12:28:02 90° N 12:32:28 10° ENE daylight
06 Dec - 14:05:40 10° WNW 14:09:53 41° N 14:14:04 10° ENE daylight
06 Dec - 15:47:42 10° WNW 15:51:58 47° NNE 15:56:14 10° E daylight
06 Dec - 17:29:16 10° WNW 17:33:38 63° SSW 17:38:00 10° SE visible
06 Dec - 19:12:30 10° WSW 19:14:29 13° SW 19:16:28 10° SSW visible
07 Dec - 10:58:41 10° SSW 11:02:50 38° SE 11:06:56 10° ENE daylight
07 Dec - 12:39:51 10° W 12:44:14 60° NNW 12:48:37 10° ENE daylight
07 Dec - 14:22:06 10° WNW 14:26:16 39° N 14:30:25 10° ENE daylight
07 Dec - 16:03:53 10° WNW 16:08:16 63° NNE 16:12:39 10° ESE daylight
07 Dec - 17:45:37 10° WNW 17:49:38 35° SW 17:53:40 10° SSE visible
08 Dec - 09:35:31 10° SSE 09:37:56 14° SE 09:40:20 10° E daylight
08 Dec - 11:14:25 10° SW 11:18:51 68° SSE 11:23:15 10° ENE daylight
08 Dec - 12:56:17 10° W 13:00:33 46° NNW 13:04:49 10° ENE daylight
08 Dec - 14:38:26 10° WNW 14:42:39 42° N 14:46:51 10° E daylight
08 Dec - 16:20:02 10° WNW 16:24:27 85° SSW 16:28:53 10° ESE daylight
08 Dec - 18:02:23 10° W 18:05:30 19° SW 18:08:38 10° S visible
09 Dec - 09:49:58 10° SSW 09:53:45 27° SE 09:57:31 10° E daylight
09 Dec - 11:30:31 10° WSW 11:35:00 76° NNW 11:39:26 10° ENE daylight
09 Dec - 13:12:43 10° WNW 13:16:55 40° N 13:21:05 10° ENE daylight
09 Dec - 14:54:40 10° WNW 14:58:59 52° NNE 15:03:18 10° E daylight
09 Dec - 16:36:16 10° WNW 16:40:32 50° SW 16:44:48 10° SE daylight
10 Dec - 10:05:23 10° SW 10:09:42 48° SE 10:13:59 10° ENE daylight
10 Dec - 11:46:52 10° W 11:51:14 53° NNW 11:55:35 10° ENE daylight
10 Dec - 13:29:07 10° WNW 13:33:18 39° N 13:37:28 10° ENE daylight
10 Dec - 15:10:49 10° WNW 15:15:14 74° NNE 15:19:39 10° ESE daylight
10 Dec - 16:52:44 10° W 16:56:29 28° SW 17:00:14 10° SSE visible
11 Dec - 08:41:34 10° S 08:44:43 19° SE 08:47:51 10° E daylight
11 Dec - 10:21:17 10° WSW 10:25:46 83° SSE 10:30:13 10° ENE daylight
11 Dec - 12:03:19 10° W 12:07:34 42° N 12:11:48 10° ENE daylight
11 Dec - 13:45:25 10° WNW 13:49:40 45° N 13:53:55 10° E daylight
11 Dec - 15:27:00 10° WNW 15:31:23 70° SSW 15:35:46 10° SE daylight
11 Dec - 17:09:51 10° W 17:12:18 15° SW 17:14:45 10° SSW visible
12 Dec - 08:56:30 10° SSW 09:00:36 34° SE 09:04:38 10° ENE daylight
12 Dec - 10:37:29 10° WSW 10:41:57 65° NNW 10:46:23 10° ENE daylight
12 Dec - 12:19:45 10° WNW 12:23:57 39° N 12:28:07 10° ENE daylight
12 Dec - 14:01:36 10° WNW 14:05:59 59° NNE 14:10:20 10° E daylight
12 Dec - 15:43:17 10° WNW 15:47:25 39° SW 15:51:31 10° SSE daylight
13 Dec - 07:33:46 10° SSE 07:35:43 13° SE 07:37:41 10° ESE daylight
13 Dec - 09:12:08 10° SW 09:16:35 61° SSE 09:20:59 10° ENE daylight
13 Dec - 10:53:53 10° W 10:58:14 48° NNW 11:02:32 10° ENE daylight
13 Dec - 12:36:07 10° WNW 12:40:20 41° N 12:44:32 10° ENE daylight
13 Dec - 14:17:45 10° WNW 14:22:12 87° NNE 14:26:36 10° ESE daylight
13 Dec - 15:59:56 10° W 16:03:18 22° SW 16:06:40 10° S daylight
14 Dec - 07:47:52 10° SSW 07:51:31 24° SE 07:55:08 10° E daylight
14 Dec - 09:28:10 10° WSW 09:32:42 83° NNW 09:37:11 10° ENE daylight
14 Dec - 11:10:21 10° WNW 11:14:35 41° N 11:18:48 10° ENE daylight
14 Dec - 12:52:21 10° WNW 12:56:41 49° NNE 13:00:59 10° E daylight
14 Dec - 14:33:57 10° WNW 14:38:17 56° SSW 14:42:36 10° SE daylight
14 Dec - 16:17:51 10° WSW 16:19:04 11° SW 16:20:17 10° SSW daylight
15 Dec - 08:03:08 10° SW 08:07:26 43° SE 08:11:42 10° ENE daylight
15 Dec - 09:44:29 10° W 09:48:55 57° NNW 09:53:19 10° ENE daylight
15 Dec - 11:26:46 10° WNW 11:30:58 39° N 11:35:09 10° ENE daylight
15 Dec - 13:08:31 10° WNW 13:12:57 68° NNE 13:17:21 10° ESE daylight
15 Dec - 14:50:21 10° WNW 14:54:15 31° SW 14:58:09 10° SSE daylight
